CAPE
4 0 51 10 0 2 22 38 39 40 47 123 268 153 265 356 274 74 153 243 500 659 944 1218 1301 965 1075 802 1203 1468 1023 1308 1407 1487 1544 1609 1827 1650 1506 1432 1708 1898 1676 1720 1716 1249 1362 1221 1244
0 11 0 1 3 34 54 52 42 45 81 70 132 184 251 369 503 362 303 436 650 771 780 880 1650 1268 1055 945 855 1085 1211 732 1243 1538 1595 1720 1638 1492 1661 1581 1763 1795 1676 1424 1558 1786 1831 1681 1543
29 23 2 11 33 75 83 99 37 66 52 243 293 250 310 352 396 298 174 408 537 731 782 895 1420 1459 1100 901 437 698 1302 677 875 1731 1663 1784 1545 1768 1626 1644 1430 1400 1402 1130 1205 946 1022 1169 1183
436 33 10 37 166 146 98 30 51 111 166 215 195 205 183 136 259 233 200 152 257 318 671 1382 1475 1443 1187 755 612 581 1444 1437 1790 1816 1540 1589 1642 1675 1330 1170 1136 1105 982 1196 1256 742 680 762 687
22 15 12 129 138 116 80 111 97 72 90 55 99 114 64 15 103 109 66 57 50 59 492 994 1410 1328 1096 1064 1226 1330 1607 1522 1645 1487 1610 1631 1902 1550 1269 1096 1210 1494 1505 1127 1220 1055 1031 984 1157
0 18 10 32 136 117 84 131 67 78 88 36 10 32 0 2 34 24 44 19 0 65 172 698 1506 1505 881 983 1199 1609 1216 1649 1700 1557 1419 1589 1531 1400 1351 1192 1135 1330 1636 1637 1414 1383 1409 1442 1522
0 0 5 21 90 157 105 69 29 14 9 2 1 4 0 0 0 0 0 0 0 14 39 213 258 1129 1205 1255 1458 1679 1724 1623 1678 1691 1645 1639 1502 1309 1280 1379 1298 1233 1186 1161 1204 1319 1516 1708 1838
0 0 54 34 86 178 216 114 1 29 17 6 0 0 0 0 0 0 0 0 0 0 0 0 16 83 693 758 1472 1582 1631 1700 1504 1150 1237 1355 1284 1241 1281 1352 1201 1713 1612 1598 1681 1835 2058 1984 2209
0 0 28 74 90 155 94 59 23 19 10 3 5 0 0 0 0 0 0 0 0 0 0 0 0 0 32 78 691 751 1372 1844 1665 1394 1868 777 220 185 298 1074 1400 1766 1973 2189 2233 2222 2142 1800 1848
0 0 15 76 152 77 172 189 86 9 13 0 0 0 0 0 0 0 0 0 0 0 0 0 0 0 13 87 72 187 397 259 169 151 159 208 249 311 1177 938 1302 1221 1260 1220 1536 1393 1156 989 511
11 0 36 103 81 96 140 219 44 18 42 0 0 0 0 0 0 0 0 0 0 0 0 0 0 21 65 84 75 81 95 68 0 23 70 102 148 161 223 176 295 180 474 568 543 395 370 374 513
161 65 133 147 92 94 174 270 123 52 30 0 0 0 0 0 0 0 0 0 0 0 0 0 0 60 70 85 42 34 96 3 78 83 73 127 149 132 29 98 0 110 206 499 227 296 401 480 556
65 29 26 55 40 135 208 240 216 51 8 1 0 0 0 0 0 0 0 0 0 10 12 0 0 26 60 44 118 276 235 130 100 139 0 190 49 0 0 0 79 122 140 370 226 350 481 420 551
26 5 20 31 22 107 235 224 323 73 14 18 0 0 0 0 0 0 0 0 0 18 18 6 11 19 35 33 81 227 265 33 0 10 0 33 44 72 0 5 128 42 49 277 403 241 262 362 703
54 150 256 256 176 169 158 87 197 41 32 28 0 3 12 11 0 0 0 0 0 10 13 0 6 5 21 44 69 75 169 213 119 0 41 0 0 0 0 6 32 3 26 207 503 493 247 173 465
294 93 63 141 95 85 109 58 214 129 46 40 21 30 33 42 44 0 5 0 0 0 0 1 0 9 14 25 40 64 118 68 25 0 56 26 0 0 0 0 7 2 4 208 342 446 537 206 99
0 7 67 165 172 54 23 36 55 188 53 76 67 74 68 67 140 25 12 11 0 0 0 0 0 10 23 23 35 103 28 0 12 39 33 57 9 0 0 0 0 3 5 110 271 528 219 80 23
0 0 4 46 244 86 1 0 5 158 56 88 82 91 100 102 127 69 42 23 0 0 0 0 0 45 42 81 56 0 27 152 91 105 139 219 10 0 0 0 0 0 0 67 145 361 196 59 64
2 0 3 54 462 161 40 7 0 45 100 79 114 120 138 108 122 62 28 30 0 0 0 0 0 4 109 6 15 0 122 138 118 34 114 123 0 0 42 0 0 0 0 24 176 271 173 113 1
0 0 4 60 577 220 181 79 19 22 44 105 139 68 98 85 73 23 28 48 0 0 0 0 0 0 65 0 4 0 24 177 72 12 0 232 99 126 53 0 0 0 3 206 284 3 0 2 0
0 0 0 15 391 339 241 93 206 71 47 49 107 89 66 97 75 49 50 87 32 10 0 0 0 0 45 19 72 21 0 88 146 19 30 177 382 75 0 0 0 0 2 98 164 222 73 435 180
0 0 40 346 112 5 150 16 9 84 87 44 16 103 56 70 83 105 110 124 86 57 3 17 0 0 28 58 188 154 70 69 85 75 223 305 547 397 29 0 0 0 37 68 305 1438 1156 731 668
0 14 110 435 67 101 153 75 31 33 58 46 23 10 87 110 24 130 137 170 145 105 123 106 38 30 44 120 191 107 44 0 0 47 380 123 373 413 145 1 5 92 138 173 523 993 1174 1155 1155
12 42 25 0 5 32 12 76 16 47 50 18 13 1 10 70 59 26 104 190 200 197 196 99 101 90 64 161 145 82 43 2 80 186 309 323 95 291 432 123 134 173 277 798 958 1088 980 1060 1026
0 0 13 41 70 37 0 136 21 34 82 184 125 11 0 1 138 32 6 97 155 198 70 141 167 121 126 303 151 45 0 66 192 96 298 307 233 261 327 323 387 395 509 907 1026 1095 846 1295 1171
0 0 0 0 0 0 0 194 0 77 17 237 435 165 16 0 67 44 21 9 9 75 59 222 194 181 163 481 354 81 8 69 137 34 363 337 274 384 324 295 722 736 808 706 740 1117 1004 1066 1406
0 0 0 0 0 0 0 3 23 91 36 119 69 74 0 0 7 39 14 14 12 22 55 193 196 188 166 339 412 280 157 120 244 82 228 367 237 229 181 415 916 616 879 843 898 1006 761 879 834
0 0 0 0 0 0 0 36 43 2 20 2 0 2 75 0 11 31 33 56 21 14 48 199 212 197 176 255 292 305 216 185 207 93 270 117 73 30 277 340 569 401 262 573 1378 1019 684 461 170
0 0 0 0 0 0 0 0 3 11 0 0 0 0 1 91 2 7 33 50 111 30 59 142 114 149 127 183 270 246 123 113 184 211 239 345 28 0 65 273 261 190 791 991 1091 1080 780 681 446
0 0 0 0 0 0 0 0 0 0 0 0 0 0 169 185 12 0 13 3 47 68 148 129 515 226 117 197 183 306 173 130 103 209 171 78 155 283 134 228 404 266 760 593 706 811 1003 843 832
CIN
-325 0 -365 -402 -19 -33 -80 -73 -100 -95 -109 -148 -114 -115 -116 -108 -102 -121 -187 -140 -89 -67 -21 -2 -1 0 -1 0 -1 0 0 0 -1 0 0 0 0 0 0 0 -1 0 -1 0 0 0 -1 0 0
0 -421 0 -150 -117 -56 -61 -77 -72 -111 -174 -183 -140 -136 -123 -96 -77 -112 -119 -78 -44 -57 -44 -14 0 0 -7 0 -10 -7 0 0 -4 -4 -1 0 0 0 0 0 0 0 0 0 0 0 0 0 0
-406 -339 -53 -179 -159 -73 -73 -98 -150 -136 -160 -84 -85 -113 -101 -86 -94 -126 -170 -83 -64 -37 -33 -13 0 0 -8 -11 -9 -10 -1 0 -7 -1 0 0 0 0 0 0 0 0 0 -1 0 -7 0 -1 -6
-182 -292 -267 -90 -61 -76 -93 -142 -134 -119 -116 -114 -114 -120 -119 -148 -110 -134 -141 -118 -83 -81 -32 -1 -1 -1 -2 -4 -7 -5 -1 -2 0 0 -1 0 0 0 0 0 -3 0 -1 0 0 -16 -23 -17 -25
-369 -246 -129 -76 -68 -98 -116 -110 -110 -116 -124 -145 -145 -147 -156 -237 -188 -179 -171 -125 -112 -107 -41 -23 0 0 -8 -9 -1 -2 0 0 0 0 0 -1 0 0 0 -7 0 0 0 0 0 -4 -7 -14 -13
0 -227 -87 -90 -61 -53 -102 -87 -121 -138 -150 -185 -106 -204 0 -125 -212 -140 -158 -115 0 -68 -57 -28 -1 -2 -5 -4 -6 -2 -1 -2 -1 -2 -5 -1 0 0 0 0 0 0 0 0 0 0 -3 -12 -12
0 0 -98 -63 -43 -30 -58 -81 -85 -112 -151 -45 -11 -39 0 0 0 0 0 0 0 -67 -55 -48 -70 -5 0 -3 -6 -1 0 -1 -2 -1 -1 0 0 0 0 0 0 0 0 0 -1 -3 -11 -12 -9
0 -17 -31 -13 -13 -18 -19 -48 -100 -86 -156 -178 0 0 0 0 0 0 0 0 0 0 0 0 -112 -110 -24 -14 -4 -2 0 0 0 -4 -5 0 -2 0 0 -5 -8 0 0 0 0 -3 -7 -8 -8
0 -11 -59 -28 -9 -45 -62 -64 -91 -132 -163 -45 -56 0 0 0 0 0 0 0 0 0 0 0 0 -23 -100 -79 -9 -20 -1 -1 -8 -18 0 -43 -118 -131 -99 -18 -10 -2 0 -2 -5 -2 -15 -49 -47
0 0 -29 -29 -30 -36 -63 -69 -63 -131 -136 0 0 0 0 0 0 0 0 0 0 0 0 0 0 0 -107 -84 -98 -97 -69 -92 -111 -115 -129 -145 -141 -125 -33 -63 -33 -34 -38 -51 -32 -70 -93 -153 -190
-12 0 -78 -28 -11 -67 -76 -28 -74 -116 -124 0 0 0 0 0 0 0 0 0 0 0 0 0 0 -92 -87 -83 -127 -144 -133 -170 0 -220 -207 -213 -195 -210 -178 -213 -193 -235 -148 -178 -184 -238 -282 -296 -282
-64 -69 -42 -68 -25 -98 -45 -75 -65 -92 -86 0 0 0 0 0 0 0 0 0 0 0 0 0 -5 -66 -75 -98 -135 -164 -143 -54 -188 -205 -228 -211 -214 -220 -308 -254 0 -331 -274 -223 -328 -331 -345 -339 -347
-115 -93 -67 -90 -67 -65 -55 -54 -60 -81 -139 -36 0 0 0 0 0 0 0 0 0 -118 -104 -102 -35 -79 -86 -113 -117 -88 -107 -180 -195 -176 0 -201 -281 0 0 0 -350 -345 -341 -269 -357 -371 -314 -301 -232
-161 -96 -103 -72 -88 -47 -33 -28 -50 -80 -158 -173 0 0 0 0 0 0 0 0 0 -128 -114 -165 -142 -111 -117 -156 -125 -93 -148 -290 0 -85 0 -250 -197 -303 0 -89 -344 -424 -408 -327 -348 -372 -320 -319 -263
-124 -76 -24 -34 -44 -45 -63 -18 -51 -145 -139 -156 0 -57 -179 -152 0 0 0 0 0 -206 -199 -18 -224 -212 -184 -167 -168 -158 -150 -177 -223 0 -246 0 0 0 0 -383 -407 -123 -468 -358 -276 -272 -342 -372 -248
-54 -71 -40 -58 -66 -51 -59 -38 -44 -105 -115 -115 -153 -178 -139 -149 -132 0 -136 0 0 0 0 -235 0 -230 -253 -221 -174 -181 -183 -242 -247 0 -294 -253 0 0 0 0 -191 -96 -125 -342 -274 -274 -274 -364 -392
0 -68 -62 -43 -59 -89 -91 -43 -73 -95 -106 -130 -138 -151 -132 -128 -126 -146 -137 -222 0 0 0 0 0 -317 -272 -280 -222 -180 -125 0 -220 -330 -323 -300 -89 0 0 0 0 -435 -271 -408 -295 -247 -384 -442 -431
0 0 -62 -103 -76 -80 -45 0 -150 -85 -139 -140 -114 -119 -121 -140 -158 -183 -221 -227 0 0 0 0 0 -233 -310 -239 -223 0 -187 -214 -275 -263 -244 -213 -125 0 0 0 0 0 0 -419 -351 -276 -358 -412 -359
-140 0 -32 -117 -77 -89 -128 -112 0 -135 -115 -143 -123 -104 -107 -149 -137 -194 -211 -212 0 0 0 0 0 -146 -197 -294 -242 0 -134 -192 -224 -258 -237 -244 0 0 -316 0 0 0 0 -445 -321 -306 -326 -336 -141
-13 0 -107 -128 -83 -92 -84 -119 -148 -166 -163 -125 -150 -129 -96 -152 -172 -210 -275 -262 0 0 0 0 0 0 -216 0 -94 0 -215 -190 -225 -61 0 -222 -270 -245 -271 0 0 0 -24 -274 -283 -42 0 -141 0
0 0 0 -35 -80 -79 -88 -106 -117 -202 -204 -231 -134 -145 -121 -143 -208 -212 -257 -258 -260 -211 0 0 0 0 -243 -259 -219 -261 0 -219 -194 -292 -138 -241 -187 -263 0 0 0 0 -26 -326 -312 -304 -355 -220 -313
0 0 -172 -135 -104 -18 -110 -45 -218 -225 -200 -207 -206 -138 -172 -169 -232 -183 -200 -212 -264 -266 -52 -241 0 0 -263 -229 -173 -162 -142 -118 -182 -227 -206 -201 -164 -183 -280 0 0 0 -364 -347 -260 -109 -137 -194 -158
0 -215 -168 -117 -122 -94 -108 -60 -124 -307 -216 -225 -242 -219 -159 -192 -270 -193 -193 -199 -231 -197 -237 -237 -257 -245 -223 -185 -178 -172 -183 0 0 -246 -162 -186 -196 -183 -237 -21 -18 -237 -256 -284 -220 -122 -115 -129 -100
-192 -228 -307 0 -129 -69 -113 -56 -73 -178 -206 -271 -303 -132 -202 -183 -212 -282 -212 -152 -195 -188 -197 -232 -229 -225 -223 -169 -181 -174 -161 -53 -216 -188 -170 -171 -250 -221 -192 -247 -232 -242 -235 -159 -145 -122 -122 -106 -106
0 -7 -85 -81 -56 -52 0 -110 -85 -210 -279 -225 -218 -99 0 -75 -167 -233 -253 -180 -170 -199 -261 -225 -224 -217 -218 -165 -175 -210 0 -182 -197 -164 -172 -169 -204 -214 -192 -195 -174 -204 -200 -134 -119 -116 -122 -87 -85
0 0 0 0 0 0 -16 -69 0 -269 -188 -285 -212 -230 -91 0 -207 -246 -269 -283 -231 -235 -305 -217 -241 -215 -222 -146 -153 -219 -247 -228 -241 -283 -195 -207 -213 -190 -194 -204 -166 -173 -155 -146 -136 -105 -106 -102 -86
0 0 0 0 0 0 0 -18 -228 -285 -322 -312 -325 -281 0 0 -277 -230 -274 -253 -278 -335 -346 -263 -239 -231 -246 -174 -171 -154 -178 -208 -190 -246 -229 -213 -226 -227 -231 -208 -151 -161 -142 -138 -133 -108 -108 -109 -108
0 0 0 0 0 -2 0 -139 -75 -53 -263 -41 0 -68 -282 0 -310 -276 -281 -279 -326 -368 -329 -245 -243 -256 -230 -226 -187 -162 -165 -171 -187 -220 -200 -246 -273 -201 -215 -210 -183 -189 -187 -148 -96 -117 -128 -118 -152
0 0 0 0 0 0 0 0 -103 -163 0 0 0 0 -70 -251 -139 -295 -257 -270 -275 -297 -291 -286 -298 -261 -229 -246 -216 -180 -183 -167 -155 -166 -173 -180 -212 0 -241 -213 -210 -207 -127 -104 -108 -104 -116 -107 -116
0 0 0 0 0 0 0 0 0 0 0 0 0 0 -277 -265 -300 0 -255 -241 -226 -244 -257 -278 -197 -241 -236 -223 -211 -187 -198 -176 -163 -142 -164 -203 -204 -202 -220 -204 -172 -186 -117 -130 -113 -103 -80 -86 -81
Wind_Speed
3 2 2 3 3 5 2 2 2 3 3 2 2 5 7 4 1 2 2 1 6 6 5 5 9 8 6 4 7 9 10 10 10 10 12 12 12 12 12 11 9 10 11 10 13 11 10 10 10
3 4 3 2 5 3 2 1 1 3 6 8 7 5 4 3 3 4 2 1 4 6 5 5 8 9 7 7 6 7 10 9 11 10 11 12 12 12 12 10 10 10 11 12 10 11 9 9 9
5 1 3 4 2 3 3 1 6 11 8 2 5 5 3 1 3 5 2 6 4 5 4 5 8 9 7 7 8 7 9 11 9 10 12 12 12 12 11 10 10 11 10 8 9 8 9 7 7
3 2 3 5 3 3 4 6 7 7 6 6 8 6 4 3 4 3 7 6 6 4 4 7 7 9 9 8 8 7 8 9 10 10 10 12 11 12 10 10 10 10 7 8 8 8 7 7 7
3 1 4 3 1 2 4 7 5 1 2 5 2 3 3 3 6 8 7 6 6 3 1 3 8 9 9 10 12 4 8 8 9 9 9 9 11 10 9 9 10 9 9 10 10 7 7 8 9
4 2 4 2 3 5 5 7 4 4 5 3 6 4 2 2 5 5 6 5 5 4 2 0 9 8 9 9 9 9 7 7 8 9 9 10 9 7 7 9 9 9 10 10 9 9 9 9 8
5 3 2 3 3 2 4 5 4 5 3 4 4 4 1 1 5 6 6 5 5 3 3 3 4 7 8 9 10 10 8 7 7 9 9 8 6 6 6 8 8 8 9 9 7 8 10 10 9
4 1 3 3 5 4 7 2 6 5 3 4 6 5 5 4 7 7 6 6 5 5 4 5 4 4 4 4 12 10 7 8 10 8 6 6 7 6 7 8 6 8 8 7 9 9 8 7 14
1 4 2 3 2 1 5 3 3 5 7 1 3 4 6 12 9 7 5 4 4 5 5 5 5 4 3 4 6 7 8 10 8 7 8 6 3 4 5 6 6 7 7 8 9 13 14 16 18
3 3 3 3 2 2 6 2 6 3 3 4 6 10 12 11 8 7 5 4 4 3 4 4 4 3 3 4 5 5 4 4 3 4 4 2 1 1 3 5 7 9 10 8 10 11 12 11 5
1 2 6 6 2 5 6 5 3 9 3 4 10 12 11 10 6 6 5 4 4 3 2 4 3 3 4 3 3 2 2 2 2 4 3 3 2 0 2 2 3 3 6 3 7 7 5 7 6
3 2 5 10 6 3 4 7 3 7 2 6 8 14 10 10 6 6 6 6 6 4 4 4 4 4 4 3 2 2 3 2 2 3 3 2 0 1 3 3 2 2 1 5 5 4 7 7 7
3 2 4 9 7 1 6 3 2 6 10 12 10 10 9 8 6 3 4 5 5 5 5 5 5 4 4 3 2 2 2 2 2 1 3 1 1 1 3 3 2 1 1 4 5 5 3 3 2
3 5 7 4 4 2 4 4 7 5 12 13 10 8 6 7 10 4 4 6 6 4 5 5 5 4 2 3 1 2 2 1 0 0 1 1 1 2 3 2 2 1 1 4 5 2 2 3 5
8 6 3 3 2 3 1 3 2 7 11 13 9 7 5 5 6 8 6 5 6 3 5 6 5 5 4 3 1 2 0 1 2 1 2 2 2 2 3 3 0 1 0 3 1 1 3 2 2
4 4 2 2 5 2 3 2 5 6 11 10 10 8 9 7 6 6 7 5 5 4 8 8 7 6 5 3 1 1 2 2 2 2 2 4 1 1 3 2 1 1 2 2 2 1 1 0 1
4 2 3 2 7 3 2 3 4 3 12 13 12 9 11 7 7 7 7 8 6 7 6 5 5 6 6 4 0 1 3 2 3 2 3 3 1 2 2 1 0 1 1 3 1 1 1 0 2
5 3 2 5 8 5 4 6 2 1 14 13 12 11 8 8 12 7 6 5 7 6 5 3 4 3 4 2 2 0 2 2 2 1 2 3 2 2 2 2 2 1 1 1 1 2 1 2 1
5 4 3 3 5 6 8 5 7 6 3 11 11 11 13 12 10 5 6 5 6 6 6 6 6 6 3 2 2 2 2 1 0 2 0 2 1 1 2 1 2 1 1 1 0 1 2 2 1
2 1 4 2 6 6 4 11 6 9 7 9 11 14 13 9 7 7 7 7 7 8 9 7 7 6 4 2 2 2 2 1 1 0 2 2 2 3 2 2 2 1 1 1 1 2 2 1 0
3 5 4 3 4 2 3 5 5 6 5 7 6 10 16 18 14 11 11 12 10 9 11 10 7 7 5 5 3 2 2 2 1 1 2 3 4 2 2 3 2 2 1 1 1 2 2 2 1
5 9 6 10 5 2 3 5 5 4 5 6 10 8 11 14 11 11 13 12 13 14 7 7 7 7 5 7 4 4 4 3 3 2 2 2 1 1 3 4 2 2 2 1 1 1 1 1 2
9 5 7 4 4 3 1 3 7 1 4 9 9 10 10 10 15 17 16 16 15 11 10 6 6 6 6 6 6 4 4 2 1 1 3 2 1 2 1 3 3 4 3 2 1 1 2 1 1
6 8 9 6 3 3 4 5 8 3 6 3 6 10 10 8 9 10 12 13 11 9 7 7 8 7 6 8 7 6 6 5 3 1 2 3 2 2 3 3 4 2 2 2 1 1 2 1 1
7 7 4 4 3 6 2 3 10 5 3 4 5 6 11 14 10 12 12 12 11 12 11 10 9 9 9 8 7 7 7 7 6 5 3 3 2 2 4 4 5 3 3 2 1 1 0 1 1
4 8 8 6 5 5 1 5 6 2 3 4 4 6 8 15 13 13 14 12 10 13 12 11 11 9 10 10 8 6 7 4 4 5 3 3 3 3 2 2 2 4 4 3 1 1 1 0 2
5 3 4 8 4 3 3 6 7 2 2 3 6 5 4 12 15 16 13 14 14 12 13 14 11 10 11 11 6 6 5 5 5 5 3 3 3 3 3 3 4 5 5 2 1 1 2 1 0
3 5 3 3 5 4 4 4 6 4 6 5 4 5 4 5 8 11 14 14 14 13 12 11 12 13 12 12 9 7 8 6 5 4 5 5 4 3 4 3 3 3 2 3 3 3 3 1 1
4 3 7 6 3 6 2 7 7 7 5 5 7 6 6 6 8 8 10 12 13 13 12 11 8 8 8 9 9 8 7 5 4 4 4 5 4 5 5 4 3 3 4 2 2 3 3 3 3
1 4 5 6 3 1 3 8 2 4 5 5 7 7 6 7 8 9 10 11 10 13 8 11 9 9 8 6 6 8 6 6 5 5 5 4 5 4 4 4 4 5 3 2 2 3 3 5 5
Wind_Direction
173 155 159 75 62 65 18 5 118 101 80 338 351 108 113 42 81 212 11 193 129 130 150 154 147 154 132 112 114 126 125 115 119 115 118 123 116 105 104 108 117 111 106 102 101 112 114 115 103
155 159 41 80 81 80 289 36 133 76 131 117 81 94 61 80 84 113 106 157 135 125 123 133 159 150 143 122 95 130 121 121 113 104 114 111 105 110 102 103 110 100 89 84 102 98 100 94 98
179 79 92 95 100 103 149 18 117 136 164 115 108 58 87 76 87 160 166 136 105 94 112 140 154 154 135 123 105 116 129 125 116 108 110 109 107 95 99 96 84 80 82 94 85 83 84 89 85
176 44 49 72 43 31 108 137 136 147 100 63 108 73 70 27 139 145 111 99 97 96 130 141 151 141 126 122 117 128 109 114 101 99 109 106 102 100 89 79 73 73 80 77 74 64 66 64 60
27 52 66 82 81 311 94 128 112 151 63 100 115 113 58 26 81 100 104 107 109 76 90 131 136 130 116 106 115 138 106 111 113 109 101 103 94 86 82 74 68 61 61 61 58 52 41 36 35
49 81 64 73 17 43 76 127 96 40 53 133 77 80 17 94 78 83 94 106 111 122 61 4 139 135 127 117 116 103 97 109 109 102 94 89 85 85 72 65 61 56 55 61 55 47 38 35 34
89 67 104 127 355 33 87 85 93 93 135 72 116 85 146 112 104 98 98 95 96 104 97 39 30 136 126 116 106 85 69 80 92 83 81 80 75 72 66 55 43 47 48 49 47 47 38 23 18
99 358 98 20 39 69 4 34 122 122 10 87 152 163 187 167 113 96 85 87 81 70 77 60 55 56 98 94 97 85 71 78 80 79 88 67 45 45 46 54 29 29 36 32 34 34 33 25 35
183 67 109 105 123 47 353 69 164 102 139 354 148 116 130 122 112 101 96 76 79 89 70 58 77 72 94 91 103 77 65 57 59 58 58 53 40 34 32 30 21 14 25 26 34 42 55 64 69
63 99 150 90 110 307 315 78 157 113 149 61 76 90 113 123 127 129 131 123 99 112 103 87 99 108 89 74 73 65 53 53 46 53 52 38 12 28 32 13 4 29 36 34 61 88 78 86 84
104 151 135 165 177 357 315 141 146 131 249 212 163 143 135 131 126 141 138 142 150 149 123 124 125 103 69 80 80 68 62 38 19 35 24 337 308 319 58 54 49 49 39 65 96 100 103 120 136
103 55 136 142 129 298 6 312 108 161 241 138 151 143 140 144 156 166 159 159 152 160 161 156 147 134 84 97 118 126 99 91 71 49 30 30 10 95 86 70 63 83 43 94 133 147 166 158 168
99 128 74 152 159 48 301 304 296 188 107 114 129 145 157 147 150 197 161 147 156 167 171 176 156 164 114 146 178 81 124 76 54 33 14 94 119 107 90 105 118 74 83 134 161 188 135 132 129
85 86 106 84 108 287 32 298 166 136 131 132 149 167 171 173 165 147 203 169 179 174 181 161 168 173 155 194 165 133 104 164 200 287 36 157 167 116 101 126 128 26 131 190 198 131 90 203 190
125 78 79 134 195 78 218 338 62 125 140 142 165 172 192 198 170 184 193 209 169 184 181 176 176 174 194 217 262 64 200 254 289 298 242 182 111 176 120 129 104 47 54 215 83 71 80 187 68
62 70 94 162 149 155 189 193 135 132 137 166 183 182 202 216 196 185 178 191 161 180 202 183 183 178 190 204 223 299 256 270 277 249 235 195 325 139 116 107 126 11 15 76 77 177 99 110 100
18 156 168 140 197 112 219 167 198 154 169 193 192 193 198 208 225 184 192 178 174 194 222 209 208 190 178 150 82 324 277 254 244 222 195 197 174 152 169 147 17 61 11 66 136 243 199 284 80
179 190 199 188 198 184 175 258 255 232 175 208 185 198 202 217 228 203 181 187 163 179 198 231 243 199 159 137 142 200 247 273 272 257 215 190 197 198 233 171 222 98 107 60 154 159 66 72 86
128 141 186 217 176 148 204 246 204 214 227 200 195 194 204 213 219 201 175 191 164 173 194 196 200 218 159 146 173 167 201 232 293 263 204 165 161 177 200 164 199 97 141 186 165 164 98 74 95
273 240 224 142 156 166 197 241 225 178 219 200 188 194 209 215 196 189 192 197 193 186 196 201 201 200 206 155 190 194 159 162 200 211 290 227 172 192 179 195 207 49 270 90 76 85 103 94 136
224 195 200 132 156 218 118 277 202 217 194 210 231 195 195 205 196 193 193 204 205 203 198 203 202 197 197 187 143 80 58 55 20 162 249 243 198 178 199 165 152 294 284 3 355 102 161 122 83
285 191 147 128 113 189 142 282 261 241 232 209 207 192 191 201 191 199 192 205 208 214 192 186 183 197 207 177 182 169 180 171 216 189 210 286 157 158 210 131 130 203 259 222 253 197 106 125 108
228 95 126 124 104 98 38 71 266 107 245 239 218 211 201 194 188 194 196 199 209 206 186 175 169 200 192 184 204 188 177 190 152 221 199 217 188 195 212 140 177 196 213 242 309 360 43 45 85
133 69 53 53 77 10 235 148 282 211 206 255 222 203 205 193 202 199 203 199 204 195 176 166 173 213 199 183 198 194 195 184 173 196 214 226 240 230 192 186 238 216 223 228 215 180 63 74 129
73 63 17 18 18 223 297 119 240 246 241 221 236 222 200 203 188 192 178 191 193 191 185 179 177 198 205 195 189 194 209 195 194 193 225 202 229 229 233 193 211 225 235 236 236 44 271 15 120
179 144 153 187 190 243 35 235 256 209 310 275 252 241 215 203 188 192 189 178 193 194 189 187 185 192 192 203 193 194 201 205 196 190 197 210 209 227 220 221 246 258 244 236 169 259 320 346 174
181 169 164 103 9 76 239 289 309 230 224 262 266 308 239 198 194 189 190 198 188 194 190 184 185 195 185 202 190 187 207 207 212 200 191 190 225 226 225 223 230 220 233 242 185 239 287 337 69
131 150 72 5 140 215 283 276 239 246 229 257 273 306 301 210 194 198 185 186 188 190 191 190 186 187 200 183 197 196 197 204 213 201 202 202 209 219 233 232 220 215 252 246 236 205 215 255 274
348 58 55 112 112 157 183 261 215 212 225 254 267 285 269 250 212 202 199 192 185 192 190 189 184 184 183 194 185 186 193 197 209 220 223 217 197 196 219 208 216 231 242 219 197 226 218 242 277
252 133 127 118 225 92 141 270 238 240 258 250 276 298 301 261 220 192 180 193 190 191 175 181 169 168 193 194 176 192 173 180 189 220 231 224 220 201 219 212 217 221 229 230 211 236 228 230 243